When you browse on this site, cookies collect data to enhance your experience and personalize the content and advertising you see.
Visit our Privacy Policy to learn more. By continuing to use the site, you agree to this use of cookies and data.
  • In Austria
  • List of Countries
  • For 7 days
  • Water Temperature
  • Weather Map
  • News
  • Weather Widgets
  • user-avatar
    Login

    Hourly Weather Wiktoria

    Today, 27 January, Monday

    Time Temperature Precipitation Wind Pressure Humidity
    00:00 +21°C° 0 mm 4 mps 748 mmHg 70%
    01:00 +20°C° 0 mm 4 mps 748 mmHg 72%
    02:00 +19°C° 0 mm 3 mps 748 mmHg 75%
    03:00 +19°C° 0 mm 3 mps 748 mmHg 77%
    04:00 +18°C° 0 mm 2 mps 748 mmHg 78%
    05:00 +18°C° 0 mm 2 mps 748 mmHg 76%
    06:00 +19°C° 0 mm 2 mps 748 mmHg 73%
    07:00 +19°C° 0 mm 2 mps 749 mmHg 71%
    08:00 +23°C° 0 mm 2 mps 749 mmHg 59%
    09:00 +26°C° 0 mm 2 mps 749 mmHg 46%
    10:00 +29°C° 0 mm 2 mps 749 mmHg 35%
    11:00 +30°C° 0 mm 2 mps 748 mmHg 30%
    12:00 +31°C° 0 mm 2 mps 748 mmHg 25%
    13:00 +33°C° 0 mm 3 mps 748 mmHg 21%
    14:00 +34°C° 0 mm 3 mps 747 mmHg 19%
    15:00 +34°C° 0 mm 3 mps 747 mmHg 18%
    16:00 +35°C° 0 mm 2 mps 747 mmHg 18%
    17:00 +33°C° 0 mm 3 mps 747 mmHg 22%
    18:00 +30°C° 0 mm 3 mps 747 mmHg 27%
    19:00 +29°C° 0 mm 4 mps 747 mmHg 31%
    20:00 +27°C° 0 mm 4 mps 748 mmHg 38%
    21:00 +25°C° 0 mm 4 mps 748 mmHg 44%
    22:00 +22°C° 0 mm 4 mps 748 mmHg 52%
    23:00 +21°C° 0 mm 4 mps 748 mmHg 56%

    Tomorrow, 28 January, Tuesday

    Time Temperature Precipitation Wind Pressure Humidity
    00:00 +20°C° 0 mm 4 mps 748 mmHg 60%
    01:00 +19°C° 0 mm 3 mps 748 mmHg 64%
    02:00 +19°C° 0 mm 3 mps 748 mmHg 65%
    03:00 +18°C° 0 mm 3 mps 747 mmHg 67%
    04:00 +18°C° 0 mm 3 mps 747 mmHg 69%
    05:00 +18°C° 0 mm 3 mps 748 mmHg 67%
    06:00 +19°C° 0 mm 2 mps 748 mmHg 64%
    07:00 +19°C° 0 mm 2 mps 748 mmHg 62%
    08:00 +23°C° 0 mm 2 mps 749 mmHg 51%
    09:00 +25°C° 0 mm 2 mps 749 mmHg 41%
    10:00 +28°C° 0 mm 3 mps 749 mmHg 30%
    11:00 +29°C° 0 mm 3 mps 748 mmHg 28%
    12:00 +30°C° 0 mm 4 mps 748 mmHg 25%
    13:00 +33°C° 0 mm 4 mps 748 mmHg 23%
    14:00 +33°C° 0 mm 4 mps 748 mmHg 24%
    15:00 +33°C° 0 mm 5 mps 747 mmHg 24%
    16:00 +33°C° 0 mm 5 mps 747 mmHg 24%
    17:00 +32°C° 0 mm 4 mps 747 mmHg 27%
    18:00 +29°C° 0 mm 4 mps 747 mmHg 30%
    19:00 +28°C° 0 mm 4 mps 748 mmHg 32%
    20:00 +26°C° 0 mm 4 mps 748 mmHg 36%
    21:00 +25°C° 0 mm 3 mps 749 mmHg 39%
    22:00 +22°C° 0 mm 3 mps 749 mmHg 42%
    23:00 +22°C° 0 mm 3 mps 749 mmHg 45%

    Day after tomorrow, 29 January, Wednesday

    Time Temperature Precipitation Wind Pressure Humidity
    00:00 +21°C° 0 mm 3 mps 749 mmHg 48%
    01:00 +20°C° 0 mm 3 mps 749 mmHg 51%
    02:00 +20°C° 0 mm 3 mps 749 mmHg 52%
    03:00 +19°C° 0 mm 3 mps 749 mmHg 54%
    04:00 +19°C° 0 mm 2 mps 749 mmHg 55%
    05:00 +19°C° 0 mm 2 mps 750 mmHg 53%
    06:00 +20°C° 0 mm 2 mps 750 mmHg 52%
    07:00 +21°C° 0 mm 2 mps 750 mmHg 50%
    08:00 +24°C° 0 mm 2 mps 750 mmHg 42%
    09:00 +27°C° 0 mm 2 mps 750 mmHg 33%
    10:00 +30°C° 0 mm 2 mps 751 mmHg 25%
    11:00 +31°C° 0 mm 2 mps 750 mmHg 22%
    12:00 +34°C° 0 mm 3 mps 750 mmHg 20%
    13:00 +35°C° 0 mm 3 mps 749 mmHg 18%
    14:00 +36°C° 0 mm 2 mps 749 mmHg 17%
    15:00 +37°C° 0 mm 2 mps 748 mmHg 16%
    16:00 +37°C° 0 mm 2 mps 747 mmHg 15%
    17:00 +36°C° 0 mm 2 mps 748 mmHg 17%
    18:00 +34°C° 0 mm 2 mps 748 mmHg 20%
    19:00 +32°C° 0 mm 2 mps 748 mmHg 23%
    20:00 +30°C° 0 mm 2 mps 748 mmHg 25%
    21:00 +28°C° 0 mm 2 mps 749 mmHg 26%
    22:00 +26°C° 0 mm 2 mps 749 mmHg 28%
    23:00 +25°C° 0 mm 2 mps 749 mmHg 31%

    30 January, Thursday

    Time Temperature Precipitation Wind Pressure Humidity
    00:00 +25°C° 0 mm 2 mps 748 mmHg 34%
    01:00 +24°C° 0 mm 2 mps 748 mmHg 37%
    02:00 +23°C° 0 mm 2 mps 748 mmHg 40%
    03:00 +23°C° 0 mm 2 mps 748 mmHg 42%
    04:00 +22°C° 0 mm 1 mps 748 mmHg 45%
    05:00 +23°C° 0 mm 2 mps 748 mmHg 45%
    06:00 +24°C° 0 mm 3 mps 748 mmHg 46%
    07:00 +24°C° 0 mm 3 mps 748 mmHg 47%
    08:00 +27°C° 0 mm 3 mps 749 mmHg 42%
    09:00 +30°C° 0 mm 4 mps 749 mmHg 38%
    10:00 +33°C° 0 mm 4 mps 749 mmHg 34%
    11:00 +35°C° 0 mm 3 mps 748 mmHg 27%
    12:00 +37°C° 0 mm 3 mps 748 mmHg 21%
    13:00 +39°C° 0 mm 2 mps 747 mmHg 14%
    14:00 +40°C° 0 mm 2 mps 747 mmHg 12%
    15:00 +41°C° 0 mm 1 mps 746 mmHg 11%
    16:00 +42°C° 0 mm 1 mps 746 mmHg 9%
    17:00 +40°C° 0 mm 1 mps 746 mmHg 11%
    18:00 +38°C° 0 mm 2 mps 746 mmHg 13%
    19:00 +36°C° 0 mm 2 mps 746 mmHg 15%
    20:00 +35°C° 0 mm 2 mps 746 mmHg 17%
    21:00 +32°C° 0 mm 2 mps 747 mmHg 19%
    22:00 +30°C° 0 mm 3 mps 747 mmHg 21%
    23:00 +29°C° 0 mm 2 mps 747 mmHg 22%

    31 January, Friday

    Time Temperature Precipitation Wind Pressure Humidity
    00:00 +28°C° 0 mm 2 mps 747 mmHg 24%
    01:00 +28°C° 0 mm 2 mps 746 mmHg 25%
    02:00 +27°C° 0 mm 2 mps 746 mmHg 26%
    03:00 +27°C° 0 mm 2 mps 746 mmHg 27%
    04:00 +26°C° 0 mm 2 mps 746 mmHg 28%
    05:00 +27°C° 0 mm 3 mps 746 mmHg 29%
    06:00 +27°C° 0 mm 3 mps 746 mmHg 30%
    07:00 +28°C° 0 mm 3 mps 747 mmHg 30%
    08:00 +31°C° 0 mm 3 mps 747 mmHg 27%
    09:00 +35°C° 0 mm 4 mps 747 mmHg 23%
    10:00 +39°C° 0 mm 5 mps 747 mmHg 19%
    11:00 +41°C° 0 mm 5 mps 746 mmHg 17%
    12:00 +43°C° 0 mm 4 mps 746 mmHg 14%
    13:00 +45°C° 0 mm 4 mps 745 mmHg 12%
    14:00 +46°C° 0 mm 5 mps 744 mmHg 14%
    15:00 +46°C° 0 mm 5 mps 744 mmHg 16%
    16:00 +46°C° 0 mm 5 mps 743 mmHg 18%
    17:00 +45°C° 0 mm 5 mps 743 mmHg 20%
    18:00 +42°C° 0 mm 5 mps 743 mmHg 22%
    19:00 +41°C° 0 mm 5 mps 743 mmHg 24%
    20:00 +40°C° 0 mm 4 mps 744 mmHg 25%
    21:00 +38°C° 0 mm 4 mps 744 mmHg 27%
    22:00 +37°C° 0 mm 4 mps 744 mmHg 28%
    23:00 +36°C° 0 mm 4 mps 744 mmHg 29%

    1 February, Saturday

    Time Temperature Precipitation Wind Pressure Humidity
    00:00 +36°C° 0 mm 4 mps 744 mmHg 29%
    01:00 +35°C° 0 mm 4 mps 744 mmHg 30%
    02:00 +35°C° 0 mm 3 mps 744 mmHg 30%
    03:00 +34°C° 0 mm 2 mps 744 mmHg 31%
    04:00 +34°C° 0 mm 2 mps 744 mmHg 31%
    05:00 +34°C° 0 mm 3 mps 744 mmHg 31%
    06:00 +35°C° 0 mm 4 mps 744 mmHg 30%
    07:00 +35°C° 0 mm 5 mps 745 mmHg 30%
    08:00 +36°C° 0 mm 5 mps 745 mmHg 31%
    09:00 +37°C° 0 mm 4 mps 745 mmHg 32%
    10:00 +37°C° 0 mm 3 mps 745 mmHg 33%
    11:00 +36°C° 0.1 mm 4 mps 745 mmHg 38%
    12:00 +35°C° 0.1 mm 5 mps 745 mmHg 44%
    13:00 +34°C° 0.1 mm 5 mps 745 mmHg 49%
    14:00 +32°C° 0.6 mm 6 mps 745 mmHg 60%
    15:00 +29°C° 0.6 mm 6 mps 744 mmHg 71%
    16:00 +27°C° 0.6 mm 7 mps 744 mmHg 82%
    17:00 +27°C° 1 mm 6 mps 745 mmHg 82%
    18:00 +27°C° 1 mm 6 mps 745 mmHg 83%
    19:00 +27°C° 1 mm 5 mps 746 mmHg 84%
    20:00 +27°C° 0.4 mm 4 mps 746 mmHg 85%
    21:00 +27°C° 0.4 mm 3 mps 746 mmHg 87%
    22:00 +26°C° 0.4 mm 2 mps 746 mmHg 88%
    23:00 +26°C° 0.1 mm 2 mps 746 mmHg 88%
    Show more